Location: Roland
(31.1349°N, 85.4372°W)
Time: 19:50:12
(UTC+00:00)

SR - Pass Details

Date: 19 April 2021
Orbit: 573 x 882 km, 66.7° (Epoch: 13 May)

Event Time Altitude Azimuth Distance (km) Brightness Sun altitude
Rises 13:57:43 0° 244° (WSW) 3,270 ? 35.0°
Reaches altitude 10° 14:00:43 10° 261° (W) 2,396 ? 35.7°
Maximum altitude 14:04:44 20° 307° (NW) 1,851 ? 36.5°
Drops below altitude 10° 14:08:55 10° 353° (N) 2,508 ? 37.4°
Sets 14:12:09 0° 10° (N) 3,472 ? 38.1°
